This is the latest recevied weather packets stored in our database for station/object KA1JKB. If no packets are shown the sender has not sent any weather packets the latest 10 day(s).
| Time | Temp. | Humidity | Pressure | Rain* | Wind** | Luminosity | Snow |
|---|---|---|---|---|---|---|---|
| 1777677876 | 6.11° C | 72% | 1012.4 hPa | 0 mm | - | 21 W/m² | - |
| 1777677573 | 6.67° C | 72% | 1012.3 hPa | 0 mm | - | 22 W/m² | - |
| 1777677271 | 6.67° C | 72% | 1012.2 hPa | 0 mm | - | 24 W/m² | - |
| 1777676969 | 6.67° C | 71% | 1012.5 hPa | 0 mm | - | 28 W/m² | - |
| 1777676668 | 6.67° C | 71% | 1012.5 hPa | 0 mm | - | 29 W/m² | - |
| 1777676365 | 6.67° C | 70% | 1012.4 hPa | 0 mm | - | 16 W/m² | - |
| 1777676062 | 6.67° C | 69% | 1012.6 hPa | 0 mm | - | 16 W/m² | - |
| 1777675758 | 6.67° C | 68% | 1012.4 hPa | 0 mm | - | 18 W/m² | - |
| 1777675456 | 6.67° C | 68% | 1012.4 hPa | 0 mm | - | 18 W/m² | - |
| 1777675152 | 7.22° C | 69% | 1012.4 hPa | 0 mm | - | 20 W/m² | - |
| 1777674849 | 7.22° C | 69% | 1012.5 hPa | 0 mm | - | 26 W/m² | - |
| 1777674545 | 7.22° C | 69% | 1012.4 hPa | 0 mm | - | 37 W/m² | - |
| 1777674243 | 7.22° C | 69% | 1012.2 hPa | 0 mm | - | 42 W/m² | - |
| 1777673939 | 7.22° C | 68% | 1012.2 hPa | 0 mm | - | 36 W/m² | - |
| 1777673635 | 7.22° C | 67% | 1011.9 hPa | 0 mm | - | 43 W/m² | - |
| 1777673334 | 7.22° C | 68% | 1012.1 hPa | 0 mm | - | 50 W/m² | - |
| 1777673030 | 7.22° C | 67% | 1012.1 hPa | 0 mm | - | 55 W/m² | - |
| 1777672727 | 7.78° C | 67% | 1012.1 hPa | 0 mm | - | 50 W/m² | - |
| 1777672423 | 7.22° C | 67% | 1011.7 hPa | 0 mm | - | 59 W/m² | - |
| 1777672119 | 7.22° C | 67% | 1012 hPa | 0 mm | - | 44 W/m² | - |
| 1777671814 | 7.78° C | 67% | 1011.7 hPa | 0 mm | - | 42 W/m² | - |
| 1777671510 | 8.33° C | 66% | 1011.8 hPa | 0 mm | - | 68 W/m² | - |
| 1777671207 | 8.89° C | 66% | 1011.8 hPa | 0 mm | - | 105 W/m² | - |
| 1777670903 | 8.89° C | 63% | 1011.8 hPa | 0 mm | - | 144 W/m² | - |
| 1777670600 | 9.44° C | 65% | 1011.9 hPa | 0 mm | - | 200 W/m² | - |
* Rain latest hour (hover to see other rain measurements)
** Current wind speed in m/s (hover to see current wind gust speed)